Location: Palombina Nuova
(43.6167°N, 13.4000°E)
Time: 04:11:21
(UTC+00:00)

Cosmos 1459 Rocket - Pass Details

Date: 17 February 2020
Orbit: 938 x 999 km, 83.0° (Epoch: 29 March)

Event Time Altitude Azimuth Distance (km) Brightness Sun altitude
Rises 05:13:33 0° 346° (NNW) 3,638 6.8 -9.6°
Reaches altitude 10° 05:16:07 10° 341° (NNW) 2,696 6.1 -9.1°
Maximum altitude 05:21:58 48° 270° (W) 1,251 4.2 -8.1°
Drops below altitude 10° 05:27:54 10° 198° (SSW) 2,720 6.3 -7.0°
Sets 05:30:30 0° 192° (SSW) 3,672 7.0 -6.6°
